sat.trackr.live / text

‹ back to catalog

STARLINK-35792

NORAD 67092 · 2025-298T

PAYLOAD ACTIVE UNKNOWN

§ Identity

Operator
Country
US
Launch date
2025-12-14
Launch site
AFWTR
Launch vehicle
Mass (kg)
RCS (m²)

Purposes: comms

External: N2YO · Heavens-Above · Gunter

§ Orbital elements

Epoch: 2026-09-19T16:28:03.677088Z

Period
96.11 min
Inclination
70.0002°
Eccentricity
0.0004162
Mean motion
14.98323752 rev/d
Perigee alt
569.2 km
Apogee alt
575.0 km
Semi-major
6,950.2 km
B*
-9.8030e-5
RAAN
245.4212°
Arg perigee
268.6775°
Mean anomaly
91.3907°
Rev number
4,227

§ Raw data

STARLINK-357921 67092U 25298T   26262.68615367 -.00001263  00000+0 -98030-4 0  99972 67092  70.0002 245.4212 0004162 268.6775  91.3907 14.98323752 42277

JSON: /api/v1/satellites/67092 · /tle

For live sub-satellite position, see the globe view (requires WebGL).

§ Visibility from observer

Set your observer location to see the next 7 days of passes ≥ 10°. The values pass through the URL so the page stays shareable.

No JS? Fill the form by hand. The geolocation button needs JavaScript.